EHI
64 64 62 58 54 48 42 30 21 17 15 13 9 4 1 0 0 1 3 5 5 4 3 2 0 0 0 0 1 4 8 14 22 29 29 24 25 35 48 53 49 38 33
67 68 67 62 58 51 39 27 18 14 14 16 15 10 6 3 1 1 3 4 3 2 2 1 0 0 0 0 1 3 5 9 16 22 23 20 21 27 35 46 50 46 43
64 67 64 57 52 46 34 22 16 16 22 29 29 23 15 7 2 1 3 4 2 1 0 0 0 0 0 0 1 2 3 4 8 13 15 13 14 16 22 34 44 50 53
61 62 57 49 41 33 24 16 15 21 33 47 49 38 21 7 2 1 2 2 1 1 0 0 0 0 0 0 0 1 2 3 4 6 9 10 10 11 14 22 33 44 52
55 55 51 42 33 26 18 11 13 24 40 56 63 52 30 13 5 1 0 1 2 1 0 0 0 0 0 0 0 0 1 3 3 4 5 8 10 9 8 11 23 38 43
36 34 32 29 26 23 17 11 15 28 41 55 64 61 46 30 16 6 2 1 2 1 0 0 0 0 0 0 0 0 1 2 3 3 4 6 8 7 6 8 17 31 39
14 12 11 13 14 14 14 14 20 33 44 51 59 64 59 44 27 13 4 1 1 0 0 0 0 0 0 0 0 0 0 1 1 3 3 4 5 6 7 10 16 26 35
2 2 2 3 3 4 7 13 24 36 43 48 56 64 62 48 32 18 7 2 1 0 0 0 0 0 0 0 0 0 0 0 1 2 3 3 4 7 9 14 20 27 33
0 0 0 0 0 0 2 8 17 26 33 38 46 53 52 45 34 22 12 6 5 3 1 0 0 0 0 0 0 0 0 0 0 1 2 3 4 5 7 13 21 28 32
0 0 0 0 0 0 0 2 5 9 15 21 28 32 36 37 33 24 18 14 13 10 5 2 0 0 0 0 0 0 0 0 0 1 1 2 3 3 4 9 16 25 30
0 0 0 0 0 0 0 0 0 1 3 6 10 15 21 26 27 23 21 20 18 15 10 5 1 0 0 0 0 0 0 0 0 0 0 1 1 2 4 6 11 17 22
0 0 0 0 0 0 0 0 0 0 0 0 1 4 8 13 16 16 16 18 17 15 11 7 3 0 0 0 0 0 0 0 0 0 0 0 0 2 4 5 6 7 9
0 0 0 0 0 0 0 0 0 0 0 0 0 0 1 3 5 5 8 10 11 10 9 7 3 1 0 0 0 0 0 0 0 0 0 0 0 1 4 4 2 1 1
0 0 0 0 0 0 0 0 0 0 0 0 0 0 0 0 0 0 2 3 4 5 6 5 3 1 0 0 0 0 0 0 0 0 0 0 0 0 1 1 0 0 0
0 0 0 0 0 0 0 0 0 0 0 0 0 0 0 0 0 0 0 0 1 1 2 1 1 0 0 0 0 0 0 0 0 0 0 0 0 0 0 0 0 0 0
0 0 0 0 0 0 0 0 0 0 0 0 0 0 0 0 0 0 0 0 0 0 0 0 0 0 0 0 0 0 0 0 0 0 0 0 0 0 0 0 0 0 0
0 0 0 0 0 0 0 0 0 0 0 0 0 0 0 0 0 0 0 0 0 0 0 0 0 0 0 0 0 0 0 0 0 0 0 0 0 0 0 0 0 0 0
0 0 0 0 0 0 0 0 0 0 0 0 0 0 0 0 0 0 0 0 0 0 0 0 0 0 0 0 0 0 0 0 0 0 0 0 0 0 0 0 0 0 0
0 0 0 0 0 0 0 0 0 0 0 0 0 0 0 0 0 0 0 0 0 0 0 0 0 0 0 0 0 0 0 0 0 0 0 0 0 0 0 0 0 0 0
0 0 0 0 0 0 0 0 0 0 0 0 0 0 0 0 0 0 0 0 0 0 0 0 0 0 0 0 0 0 0 0 0 0 0 0 0 0 0 0 0 0 0
0 0 0 0 0 0 0 0 0 0 0 0 0 0 0 0 0 0 0 0 0 0 0 0 0 0 0 0 0 0 0 0 0 0 0 0 0 0 0 0 0 0 0
0 0 0 0 0 0 0 0 0 0 0 0 0 0 0 0 0 0 0 0 0 0 0 0 0 0 0 0 0 0 0 0 0 0 0 0 0 0 0 0 0 0 0
0 0 0 0 0 0 0 0 0 0 0 0 0 0 0 0 0 0 0 0 0 0 0 0 0 0 0 0 0 0 0 0 0 0 0 0 0 0 0 0 0 0 0
0 0 0 0 0 0 0 0 0 0 0 0 0 0 0 0 0 0 0 0 0 0 0 0 0 0 0 0 0 0 0 0 0 0 0 0 0 0 0 0 0 0 0
0 0 0 0 0 0 0 0 0 0 0 0 0 0 0 0 0 0 0 0 0 0 0 0 0 0 0 0 0 0 0 0 0 0 0 0 0 0 0 0 0 0 0
0 0 0 0 0 0 0 0 0 0 0 0 0 0 0 0 0 0 0 0 0 0 0 0 0 0 0 0 0 0 0 0 0 0 0 0 0 0 0 0 0 0 0
Wind_Speed
8 8 8 8 8 8 9 9 8 7 6 4 4 4 4 4 4 4 4 6 6 7 7 9 9 9 10 10 12 11 13 11 10 10 11 12 14 14 12 12 12 13 14
8 8 7 7 7 7 7 7 7 7 7 5 4 3 4 4 4 5 4 6 6 7 7 8 9 9 9 11 12 11 11 11 9 9 10 11 11 11 13 12 12 13 12
8 8 7 6 6 5 5 5 5 6 7 6 5 4 4 5 6 5 4 4 6 7 7 9 9 9 10 10 10 11 13 12 11 10 10 10 10 8 8 10 10 10 10
5 4 4 4 3 2 3 3 5 6 7 8 8 8 7 7 6 5 5 5 6 7 7 8 9 9 10 10 11 11 11 12 11 10 10 12 12 11 9 8 9 10 10
5 6 6 5 4 4 3 4 5 7 7 8 8 9 9 7 5 5 5 6 6 6 7 7 8 8 9 10 11 11 11 10 11 11 10 11 11 13 11 11 9 8 8
13 13 13 11 10 9 7 6 6 6 7 8 9 9 8 7 7 7 7 6 5 5 6 7 8 9 9 9 10 11 12 11 12 11 11 11 10 10 11 12 11 8 6
15 15 16 15 14 14 12 10 8 7 6 7 7 8 8 7 8 8 7 7 6 6 5 7 8 9 9 10 11 11 11 12 12 12 10 10 11 10 10 10 9 8 4
16 16 16 15 14 14 14 13 12 9 8 6 6 6 6 7 6 7 7 7 6 7 7 8 9 10 11 11 10 11 11 10 11 12 12 10 10 9 9 9 8 7 5
14 14 14 14 13 14 14 14 13 12 11 9 8 6 6 8 8 8 8 8 6 7 8 8 9 10 10 11 11 10 11 11 11 11 11 10 9 8 8 8 8 7 6
12 13 12 12 12 12 12 12 12 12 12 12 10 8 8 8 9 9 9 9 9 9 9 10 10 10 10 10 10 11 10 10 10 8 9 9 7 7 7 7 7 7 5
12 11 10 11 11 11 11 11 11 11 11 12 12 11 11 10 10 9 10 10 10 10 10 10 10 11 11 10 9 11 11 10 9 8 8 8 7 5 5 4 4 4 4
12 11 11 10 10 11 11 11 11 11 11 11 11 12 12 12 12 11 12 11 12 11 11 11 11 11 11 10 10 10 10 9 8 7 6 5 4 4 2 2 2 2 5
14 13 12 11 11 11 11 11 11 11 11 11 11 12 12 13 13 13 13 13 12 12 12 11 11 11 10 10 9 8 8 6 5 4 3 2 1 0 1 2 3 4 5
12 12 11 10 9 9 9 10 10 10 10 10 10 10 11 12 13 13 14 14 13 13 13 13 12 11 10 9 8 6 6 4 2 1 0 1 2 3 4 4 5 6 7
13 12 12 12 11 11 11 11 11 11 10 11 11 10 10 10 12 12 13 13 14 14 13 14 13 12 10 8 7 6 5 4 2 2 2 4 6 7 5 5 6 6 6
17 16 16 17 16 16 15 14 14 14 13 13 13 12 12 12 12 12 13 13 13 13 13 14 14 13 9 5 3 6 5 4 4 4 5 6 8 10 10 10 7 4 5
19 20 20 19 19 19 18 17 16 16 16 16 15 15 14 14 13 13 12 12 13 13 13 13 14 14 9 10 8 6 5 5 5 6 6 6 8 9 10 10 9 8 7
22 22 21 21 21 20 19 19 18 17 17 17 17 16 15 16 14 13 13 12 11 11 10 12 13 13 11 13 11 8 7 6 6 6 7 8 9 9 10 10 9 8 8
23 22 22 23 22 22 21 21 20 19 18 18 17 17 16 16 15 15 14 12 11 11 10 10 12 13 11 15 14 12 9 8 8 8 8 9 9 8 7 10 11 10 8
22 22 23 23 23 22 21 21 21 20 19 18 17 16 16 16 16 16 14 13 11 11 10 9 10 12 12 16 16 14 9 9 9 7 7 6 9 9 6 10 11 11 11
25 24 23 21 20 20 20 21 21 20 19 18 17 16 16 16 16 16 14 13 12 11 10 9 9 11 12 17 18 15 9 10 10 9 8 8 9 7 4 6 9 11 11
25 24 22 20 19 19 19 21 21 20 18 17 17 17 17 16 14 14 13 12 11 11 10 7 6 7 9 15 17 15 9 7 9 9 9 10 10 8 5 5 11 11 9
24 22 22 21 19 18 18 20 20 18 18 18 18 17 17 15 14 14 14 12 11 9 7 5 5 5 7 10 16 14 8 6 6 8 13 14 14 12 8 11 11 10 7
23 21 22 22 20 19 19 19 19 18 18 18 16 15 15 15 14 12 12 11 9 8 6 4 4 4 6 9 13 12 10 11 11 12 15 13 9 8 12 10 9 7 5
22 21 20 21 22 20 18 19 18 18 18 17 15 14 14 13 12 12 10 10 8 5 5 4 3 4 6 9 14 15 13 12 13 14 12 11 11 11 10 9 7 6 6
22 21 21 22 21 20 19 18 18 17 16 14 14 11 10 10 10 10 10 11 9 7 8 6 5 4 4 6 13 14 14 15 18 14 12 11 10 10 10 9 9 8 8
Wind_Direction
184 187 193 193 190 190 193 198 203 195 201 204 220 225 242 259 269 272 286 286 292 300 295 294 299 287 284 286 286 282 275 267 263 264 262 255 248 242 243 240 242 239 237
191 191 188 183 182 178 181 184 191 189 198 194 214 241 279 278 291 294 287 283 294 299 292 296 292 290 289 281 276 273 275 276 265 261 269 266 254 237 236 235 234 240 239
210 194 189 180 176 171 180 186 191 193 206 203 214 215 232 251 251 262 269 288 301 299 301 297 292 294 287 282 281 279 271 271 268 256 258 267 266 266 242 229 236 239 239
234 206 185 175 189 205 217 222 223 220 216 214 227 236 255 274 296 300 303 303 291 296 298 293 291 287 286 284 277 270 270 269 267 258 248 256 274 277 269 242 226 228 233
26 28 26 20 0 335 305 280 261 249 238 234 234 239 250 264 277 286 287 287 291 290 293 297 296 292 286 286 285 282 271 265 264 266 259 252 250 250 256 260 251 228 226
37 33 27 22 13 358 344 318 290 271 259 248 245 244 255 263 277 279 289 286 291 292 297 299 295 289 288 288 283 279 272 266 265 265 265 260 253 247 244 249 250 248 237
42 39 33 28 22 13 3 350 335 313 293 270 260 253 254 257 258 267 274 282 294 298 307 302 296 292 291 288 286 281 277 271 265 260 258 258 255 258 259 256 255 251 232
44 41 37 32 27 22 16 10 3 351 340 320 300 283 271 263 261 256 275 281 288 299 308 295 290 291 292 290 289 284 277 272 269 264 260 257 253 250 248 247 248 242 220
39 36 32 28 24 22 19 15 12 8 2 353 336 313 296 284 281 273 260 267 272 280 283 286 288 290 291 291 290 283 283 279 274 270 264 257 257 252 247 242 236 232 219
25 23 20 17 14 12 12 10 11 7 3 1 351 340 320 299 285 276 275 274 273 272 275 277 282 286 288 289 288 286 281 280 278 274 271 266 259 255 249 241 235 227 222
6 4 5 3 0 0 1 0 359 357 355 355 350 343 335 321 305 288 280 273 267 265 263 268 275 280 284 287 290 289 288 281 281 279 272 269 267 261 255 246 232 214 184
348 346 348 348 349 349 348 347 344 345 343 341 337 336 334 331 322 310 297 284 271 262 258 259 266 272 277 282 286 289 290 287 286 284 280 279 273 261 258 239 198 150 143
336 333 333 333 336 336 335 333 330 331 329 328 326 326 325 326 324 320 311 297 281 267 260 255 256 264 271 276 278 284 286 285 288 288 286 286 281 214 111 112 114 114 122
315 312 311 309 309 309 309 309 310 311 310 310 309 308 310 312 312 313 313 305 291 274 261 254 252 255 259 263 266 269 272 269 279 300 303 63 90 103 113 111 116 120 123
298 293 290 290 291 292 291 291 291 290 287 286 287 286 288 292 296 301 305 305 296 279 265 256 250 246 247 247 250 247 241 230 184 124 95 85 86 93 99 111 118 125 132
300 301 300 300 300 300 298 296 294 291 285 280 278 278 277 278 282 288 294 297 296 287 272 257 249 242 238 158 190 253 222 202 170 138 118 115 112 101 94 93 92 103 143
308 308 306 303 301 298 296 293 292 291 288 283 280 277 274 272 272 274 281 288 296 295 283 264 249 240 215 163 186 225 222 183 158 144 143 128 118 126 119 107 98 79 63
309 305 302 300 298 297 295 293 290 289 286 284 281 278 276 275 274 273 275 281 289 294 289 275 255 240 204 172 181 192 200 164 152 147 137 130 136 134 135 135 124 110 81
303 301 299 299 298 296 293 291 288 286 283 281 280 279 278 277 276 272 272 276 282 287 286 279 263 242 201 173 177 190 180 161 155 149 143 145 140 134 144 138 129 119 102
303 300 298 296 294 293 293 291 288 285 282 280 280 279 277 276 274 272 271 272 275 278 282 277 265 245 211 175 178 197 182 162 154 144 138 135 137 149 168 152 144 137 130
301 299 297 296 295 295 292 287 285 282 282 280 278 276 274 272 270 267 263 263 266 273 277 277 268 247 219 175 179 196 190 166 167 160 158 134 133 153 174 177 153 142 141
302 302 300 297 297 295 291 286 283 283 281 278 276 273 270 267 268 261 256 256 262 265 268 270 270 250 218 182 180 190 208 179 170 163 144 127 139 144 151 135 123 138 160
303 303 300 297 295 292 288 285 285 285 282 277 274 271 267 262 262 260 255 251 249 253 259 267 256 243 219 177 166 172 175 166 158 124 111 127 137 135 120 122 138 168 175
304 302 300 297 293 290 287 283 283 281 277 273 271 267 264 259 253 248 247 248 248 248 247 256 249 232 216 181 168 168 156 136 124 117 119 129 141 127 118 145 173 187 159
302 300 297 295 293 291 286 283 280 277 273 270 266 263 261 258 256 247 242 249 251 251 249 251 239 224 213 190 172 169 168 166 144 141 145 149 151 151 154 159 157 150 149
302 300 296 294 293 292 287 282 277 272 269 265 260 255 252 252 246 241 233 216 229 176 193 218 227 227 228 180 164 160 145 137 144 154 155 158 159 158 156 155 155 158 157